Location: Marstown
(39.5056°N, 77.0820°W)
Time: 14:23:27
(UTC-04:00)

Hubble Space Telescope - Visible Passes

Search period start: 24 April 2018 00:00
Search period end: 04 May 2018 00:00
Orbit: 537 x 541 km, 28.5° (Epoch: 24 April)

Date Brightness Start Highest point End Pass type
(mag) Time Alt. Az. Time Alt. Az. Time Alt. Az.
26 Apr 2.8 21:19:13 10° SSW 21:20:37 13° S 21:20:37 13° S visible
27 Apr 2.6 21:08:28 10° SSW 21:10:48 15° S 21:11:13 15° SSE visible
28 Apr 2.6 20:57:49 10° SSW 21:00:22 16° S 21:01:43 14° SSE visible
29 Apr 2.6 20:47:15 10° SW 20:49:56 17° S 20:52:07 12° SE visible
30 Apr 2.6 20:36:45 10° SW 20:39:31 17° S 20:42:17 10° SE visible
30 Apr 3.4 22:17:43 10° SW 22:17:47 10° SW 22:17:47 10° SW visible
01 May 3.2 22:07:37 10° SW 22:08:03 11° SW 22:08:03 11° SW visible
02 May 3.2 21:57:44 10° SW 21:58:18 11° SSW 21:58:18 11° SSW visible
